SCP
0 0 0 0 0 0 0 0 0 0 0 0 0 0 0 0 0 0 0 0 0 0 0 0 0 0 0 0 0 0 0 0 0 0 0 0 0 0 0 0 0 0 0 0 0 0 0
0 0 0 0 0 0 0 0 0 0 0 0 0 0 0 0 0 0 0 0 0 0 0 0 0 0 0 0 0 0 0 0 0 0 0 0 0 0 0 0 0 0 0 0 0 0 0
0 0 0 0 0 0 0 0 0 0 0 0 0 0 0 0 0 0 0 0 0 0 0 0 0 0 0 0 0 0 0 0 0 0 0 0 0 0 0 0 0 0 0 0 0 0 0
0 0 0 0 0 0 0 0 0 0 0 0 0 0 0 0 0 0 0 0 0 0 0 0 0 0 0 0 0 0 0 0 0 0 0 0 0 0 0 0 0 0 0 0 0 0 0
0 0 0 0 0 0 0 0 0 0 0 0 0 0 0 0 0 0 0 0 0 0 0 0 0 0 0 0 0 0 0 0 0 0 0 0 0 0 0 0 0 0 0 0 0 0 0
0 0 0 0 0 0 0 0 0 0 0 0 0 0 0 0 0 0 0 0 0 0 0 0 0 0 0 0 0 0 0 0 0 0 0 0 0 0 0 0 0 0 0 0 0 0 0
0 0 0 0 0 0 0 0 0 0 0 0 0 0 0 0 0 0 0 0 0 0 0 0 0 0 0 0 0 0 0 0 0 0 0 0 0 0 0 0 0 0 0 0 0 0 0
0 0 0 0 0 0 0 0 0 0 0 0 0 0 0 0 0 0 0 0 0 0 0 0 0 0 0 0 0 0 0 0 0 0 0 0 0 0 0 0 0 0 0 0 0 0 0
0 0 0 0 0 0 0 0 0 0 0 0 0 0 0 0 0 0 0 0 0 0 0 0 0 0 0 0 0 0 0 0 0 0 0 0 0 0 0 0 0 0 0 0 0 0 0
0 0 0 0 0 0 0 0 0 0 0 0 0 0 0 0 0 0 -0 0 0 0 0 0 0 0 0 0 0 0 0 0 0 0 0 0 0 0 0 0 0 0 0 0 0 0 0
0 0 0 0 0 0 0 0 0 0 0 0 0 0 0 0 0 0 0 0 0 0 0 0 0 0 0 0 0 0 0 0 0 0 0 0 0 0 0 0 0 0 0 0 0 0 0
0 0 0 0 0 0 0 0 0 0 0 0 0 0 0 0 0 0 0 0 0 0 0 0 0 0 0 0 0 0 0 0 0 0 0 0 0 0 0 0 0 0 0 0 0 0 0
0 0 0 0 0 0 0 0 0 0 0 0 0 0 0 0 0 0 0 0 0 0 0 0 0 0 0 0 0 0 0 0 0 0 0 0 0 0 0 0 0 0 0 0 0 0 0
0 0 0 0 0 0 0 0 0 0 0 0 0 0 0 0 0 0 0 0 0 0 0 0 0 0 0 0 0 0 0 0 0 0 0 0 0 0 0 0 0 0 0 0 0 0 0
0 0 0 0 0 0 0 0 0 0 0 0 0 0 0 0 0 0 0 0 0 0 0 0 0 -0 0 0 -0 0 0 0 0 0 0 0 0 0 0 0 0 0 0 0 0 0 0
0 0 0 0 0 0 0 0 0 0 0 0 0 0 0 0 0 0 0 0 0 0 0 0 0 -0 0 -0 0 -0 -0 0 0 0 0 0 0 0 0 0 0 0 0 0 0 0 0
0 0 0 0 0 0 0 0 0 0 0 0 0 0 0 -0 0 0 0 0 0 0 0 0 0 0 0 0 -0 -0 0 0 0 0 0 0 0 0 0 0 0 0 0 0 0 0 0
0 0 0 0 0 0 0 0 0 0 0 0 0 0 -0 0 0 0 0 0 0 -0 0 0 0 0 0 0 -0 -0 -0 -0 0 0 0 0 0 0 0 0 0 0 0 0 0 0 0
0 0 0 0 0 0 0 0 0 0 0 0 0 0 0 0 0 0 0 0 0 0 0 0 0 0 0 0 0 0 -0 0 0 0 0 0 0 0 0 0 0 0 0 0 0 0 0
0 0 0 0 0 0 0 0 0 0 0 0 0 0 -0 0 0 -0 0 0 0 0 0 0 0 0 -0 -0 0 0 0 -0 -0 0 0 0 0 0 0 0 0 0 0 0 0 0 0
0 0 0 0 -0 0 0 0 0 0 0 0 0 -0 0 0 -0 0 0 0 0 0 0 0 0 0 0 -0 -0 0 0 0 0 0 0 0 0 0 0 0 0 0 0 0 0 0 0
0 0 0 0 0 0 0 0 0 0 0 0 0 -0 0 0 0 0 0 0 0 0 0 0 0 0 0 0 0 0 0 0 0 0 0 0 0 0 0 0 0 0 0 0 0 0 0
0 0 0 0 -0 0 0 0 0 0 0 0 0 0 0 -0 0 0 0 0 0 0 0 -0 0 0 0 0 0 0 0 0 0 0 0 0 0 0 0 0 0 0 0 0 0 0 0
0 0 0 0 -0 0 0 0 0 0 0 0 0 -0 0 -0 0 -0 -0 0 0 0 0 0 0 -0 0 -0 0 0 0 0 0 0 0 0 0 0 0 0 0 0 0 0 0 0 0
0 0 0 -0 0 0 0 0 0 0 -0 -0 0 0 -0 -0 -0 0 0 -0 -0 -0 0 0 0 -0 -0 0 0 0 0 0 0 0 0 0 0 0 0 0 0 0 0 0 0 0 0
0 0 0 -0 -0 0 0 0 0 0 -0 -0 0 0 -0 -0 0 -0 0 0 0 0 0 0 0 -0 -0 0 0 0 0 0 0 0 0 0 0 0 0 0 0 0 0 0 0 0 0
0 0 0 -0 0 0 0 0 0 -0 -0 -0 -0 0 0 -0 -0 -0 0 0 0 0 0 0 0 0 0 -0 0 0 0 0 0 0 0 0 0 0 0 0 0 0 0 0 0 0 0
0 0 0 -0 0 0 0 0 -0 -0 0 -0 -0 0 -0 0 -0 0 0 0 0 0 0 0 0 0 0 0 -0 0 0 0 0 0 0 0 0 0 0 0 0 0 0 0 0 0 0
0 0 -0 0 0 0 0 -0 0 -0 0 -0 -0 -0 0 0 -0 0 0 -0 -0 -0 -0 -0 0 0 0 0 0 0 0 0 0 0 0 0 0 0 0 0 0 0 0 0 0 0 0
Wind_Speed_500mb
45 43 41 44 44 47 46 45 47 52 52 54 51 52 52 48 47 48 51 50 47 49 45 36 35 38 32 21 38 42 33 36 19 29 41 43 33 24 23 19 22 24 18 20 24 15 20
38 42 43 43 43 43 47 52 54 49 55 53 54 54 53 50 51 50 48 46 38 44 41 37 39 41 36 30 39 39 38 33 29 34 43 48 25 30 17 15 30 19 26 19 18 26 21
43 43 44 45 47 49 48 48 49 51 50 48 49 49 55 51 54 59 51 47 40 35 41 42 44 47 51 55 33 30 27 28 29 33 41 47 45 28 15 8 15 8 11 14 29 25 15
42 44 46 47 49 50 51 51 54 54 54 52 47 48 51 57 60 65 59 45 42 42 42 45 46 46 43 43 40 63 43 33 30 33 37 33 39 22 10 10 6 10 6 17 5 26 15
43 44 45 48 47 46 50 55 55 56 57 58 54 51 52 56 58 62 65 55 46 47 49 45 49 48 36 27 52 55 55 58 37 36 32 26 30 19 13 16 12 13 23 27 12 28 14
46 47 48 47 49 52 53 55 60 63 61 60 63 57 57 57 61 62 65 70 52 48 40 39 45 26 33 25 33 44 53 47 34 37 22 19 18 19 22 26 31 28 21 19 26 17 22
47 49 45 48 49 49 55 57 59 62 61 62 63 62 60 61 67 66 62 66 20 14 23 30 12 44 38 25 29 35 40 44 30 26 26 23 19 41 49 45 35 23 32 34 19 13 17
49 51 47 48 51 53 55 61 61 61 63 66 66 64 60 61 59 54 57 30 28 26 32 50 59 66 58 26 21 33 46 37 28 36 30 14 45 45 26 37 42 29 28 29 8 11 14
49 53 52 53 56 56 56 59 62 68 71 67 63 65 65 60 61 57 50 40 38 42 15 50 56 52 56 63 38 41 63 38 26 32 40 41 41 37 33 30 33 43 46 36 28 7 8
49 53 56 60 55 56 59 63 70 73 71 73 67 65 61 64 48 35 48 25 26 30 10 21 21 34 39 38 24 56 66 35 14 39 38 30 40 18 39 44 37 38 31 30 23 8 22
53 52 59 60 62 59 64 61 68 73 76 75 70 65 61 49 56 52 42 44 39 14 11 10 14 10 17 39 23 35 75 36 18 25 19 27 26 44 21 40 36 21 6 16 22 28 18
52 54 59 63 65 64 64 67 72 73 73 74 72 67 60 58 50 50 43 44 18 12 19 11 1 2 11 29 14 24 42 28 13 15 6 14 3 28 32 27 26 27 16 10 6 8 14
59 57 56 64 60 64 65 67 69 72 73 72 71 70 62 55 50 42 43 15 10 13 2 18 21 3 8 12 14 19 31 28 26 18 18 11 10 8 6 13 10 19 23 8 10 11 14
62 64 62 59 65 70 66 69 73 73 72 72 72 74 70 59 58 42 40 11 20 12 21 2 5 10 12 6 9 11 22 23 35 25 16 27 15 26 19 18 21 42 26 12 17 15 9
58 62 60 66 69 67 70 72 79 77 74 72 74 80 66 62 56 32 28 13 13 15 14 19 9 11 13 6 10 9 11 23 29 26 28 21 19 21 39 12 25 13 18 3 11 4 4
59 64 65 67 66 68 74 77 80 81 79 72 73 76 68 24 30 35 14 20 17 20 8 6 11 6 7 3 2 5 10 7 9 42 38 11 13 22 12 11 1 12 25 7 7 15 12
58 64 68 68 66 69 74 78 82 87 87 72 65 23 37 29 17 24 7 12 13 23 23 15 22 21 13 6 9 8 10 10 13 13 38 8 7 13 21 20 29 13 12 10 7 6 12
63 64 67 66 70 71 74 76 81 81 82 48 18 10 20 24 8 5 7 8 8 15 17 26 18 22 26 25 24 17 19 18 25 13 10 14 5 9 14 4 5 11 10 16 12 12 5
64 64 63 66 73 72 75 71 75 70 57 43 16 15 29 29 9 8 7 10 16 12 17 7 10 14 2 7 13 26 23 10 26 21 12 13 9 10 8 3 5 14 11 13 10 3 17
63 65 67 67 71 68 72 70 68 66 47 44 17 8 9 27 36 8 16 13 11 12 14 22 23 22 16 20 13 14 9 11 23 22 30 15 9 9 16 5 11 17 33 28 21 10 14
62 68 67 70 70 76 73 74 64 62 44 36 12 8 14 8 11 23 15 7 9 9 9 4 6 17 17 8 8 17 30 9 10 14 7 11 10 5 4 2 3 7 28 37 35 26 24
65 67 67 70 74 77 73 73 66 51 40 39 11 11 10 17 17 20 12 2 16 19 10 11 19 10 14 12 22 35 22 11 10 8 12 4 2 5 4 3 3 6 16 34 37 32 15
67 69 69 73 75 74 68 72 56 44 34 33 22 41 15 16 10 11 7 8 6 2 14 27 21 19 18 22 28 19 18 7 2 8 14 14 13 10 7 1 2 10 24 35 28 28 25
69 68 71 75 75 72 66 65 49 41 33 36 42 38 19 9 9 11 10 9 16 17 11 12 11 9 6 22 11 8 15 16 16 15 6 10 13 4 5 7 11 1 1 4 23 13 27
71 68 74 77 75 72 65 62 51 41 34 35 38 33 9 8 10 18 22 19 21 20 11 17 17 13 22 5 5 3 2 1 10 12 11 5 6 7 8 8 5 8 5 9 12 6 9
70 70 77 79 78 71 63 60 52 42 36 33 36 30 28 9 8 14 7 5 8 6 9 8 15 16 10 3 0 2 2 2 2 3 6 10 12 4 2 3 4 4 4 2 2 6 6
72 75 80 80 78 65 60 58 53 42 34 31 29 28 25 11 11 7 5 5 5 3 6 9 11 7 7 3 3 2 3 3 1 4 1 4 5 4 3 1 5 2 6 5 7 4 7
74 78 81 75 71 65 63 63 52 39 29 25 28 24 26 10 14 10 8 5 7 5 6 9 8 3 1 3 2 3 3 3 1 2 2 1 5 3 4 2 7 11 9 2 3 0 4
76 77 79 71 64 60 65 68 38 25 19 22 23 23 30 18 7 9 13 7 6 8 10 8 9 5 5 2 2 4 4 4 1 2 1 2 1 2 7 3 4 17 2 6 2 1 2
Wind_Direction_500mb
19 15 10 8 4 359 354 352 352 350 348 345 341 334 330 323 316 314 312 299 290 280 277 276 280 282 288 253 245 254 266 278 263 221 217 207 193 199 204 202 174 218 208 203 222 208 218
22 14 14 8 3 2 360 358 352 349 350 348 346 341 336 329 327 320 317 309 296 287 268 264 260 271 277 249 262 255 254 249 243 220 215 212 215 211 230 208 202 211 220 213 219 217 222
12 13 9 8 1 358 357 354 355 353 345 346 347 345 337 336 328 324 318 312 291 276 267 260 255 259 258 249 261 252 246 242 231 224 220 220 216 203 193 188 210 164 239 231 226 220 218
11 9 9 5 0 357 353 350 353 351 350 342 342 340 333 325 325 324 318 313 304 279 261 256 253 252 248 265 262 243 240 239 225 220 219 224 214 215 206 147 136 206 222 245 175 192 196
7 6 6 1 360 357 355 353 353 347 346 341 337 329 328 325 322 319 315 309 303 292 265 256 240 232 263 246 239 246 239 231 220 214 212 217 201 216 169 204 217 201 245 229 240 195 157
2 0 2 357 351 353 352 351 349 346 345 338 332 330 319 318 316 314 316 314 299 300 279 250 243 199 230 214 237 238 228 216 209 195 183 178 192 216 214 202 223 222 228 233 229 188 205
356 348 352 348 349 351 346 346 345 340 335 334 334 327 323 320 311 316 315 323 341 282 231 228 244 229 244 227 234 227 212 193 194 185 191 187 205 219 215 216 228 267 239 241 231 181 211
349 351 350 344 344 342 341 338 336 335 332 329 326 327 321 316 315 313 313 297 299 299 300 280 266 264 246 251 220 209 193 177 187 206 197 176 224 226 241 218 224 226 237 231 247 165 215
345 340 341 337 337 336 338 338 334 328 326 322 319 320 320 315 313 320 307 284 290 296 279 271 255 244 244 226 223 202 188 200 193 207 196 202 222 204 195 204 215 232 236 241 243 165 241
339 335 332 333 334 334 336 336 331 332 329 324 321 316 317 320 319 306 308 294 308 311 275 262 216 240 221 210 229 212 202 176 197 197 203 229 241 219 208 210 196 229 220 237 232 213 248
335 332 332 331 332 337 334 335 329 330 328 328 322 314 309 313 301 294 304 312 279 246 271 270 193 213 197 186 173 201 201 193 189 170 160 214 200 205 202 216 200 230 29 229 229 236 268
328 326 331 331 327 333 332 331 326 323 324 322 323 314 306 305 299 294 307 296 279 220 221 265 338 265 188 203 202 139 172 198 163 195 231 207 184 197 214 206 204 146 113 93 113 176 224
324 324 324 332 334 328 328 325 324 321 318 320 321 316 304 296 285 289 296 281 242 240 248 255 248 259 276 216 178 195 183 175 183 180 191 172 177 162 175 129 126 161 144 153 189 201 235
322 325 325 327 328 325 325 323 319 317 317 318 318 314 303 291 291 284 256 210 227 252 236 179 152 283 244 163 235 210 194 190 219 224 178 197 200 167 174 198 178 188 183 182 209 199 193
319 321 326 326 325 323 322 323 321 321 316 319 318 318 305 304 299 266 218 227 191 237 257 263 196 218 264 185 227 223 247 217 206 197 211 191 219 186 171 156 151 168 214 107 107 13 183
319 316 324 322 322 323 324 324 323 320 317 316 313 312 297 304 282 230 209 220 229 217 283 322 300 197 285 240 237 195 190 228 251 211 234 202 195 190 140 122 176 197 137 146 180 172 220
324 321 321 323 321 323 323 324 324 320 315 308 304 293 291 289 256 204 236 232 236 248 258 240 260 254 260 293 284 289 227 229 211 246 213 199 175 139 149 208 175 155 177 186 162 197 213
322 320 321 320 319 324 324 324 326 328 325 300 305 257 286 296 254 210 249 219 251 263 262 243 260 261 264 273 278 267 225 231 188 166 222 188 101 153 185 0 309 227 213 179 197 187 253
322 323 320 320 322 327 321 325 326 331 348 339 292 269 289 264 257 222 211 231 238 249 251 260 249 234 185 295 277 226 238 266 194 180 202 172 164 126 123 123 179 210 188 209 74 93 194
324 323 323 320 323 324 322 323 324 327 330 323 281 286 271 222 244 264 260 261 241 235 243 245 263 282 270 244 226 280 250 202 211 213 201 181 182 218 220 127 136 194 191 181 187 196 165
325 321 325 321 322 321 325 323 318 320 323 320 256 262 267 272 253 251 267 261 273 276 221 201 268 241 247 263 300 270 246 220 208 214 220 194 222 150 73 116 153 192 184 186 203 202 197
321 323 322 321 321 323 324 321 315 313 315 311 243 266 318 280 270 264 257 237 264 267 225 260 230 228 244 280 284 284 287 220 225 160 185 182 169 108 137 342 252 218 203 202 215 213 231
322 324 318 322 321 324 325 324 320 312 313 300 260 292 266 266 263 250 238 230 247 168 260 255 279 282 262 268 249 255 261 330 67 183 182 173 149 175 203 98 154 266 214 200 210 213 216
321 322 319 321 323 323 322 322 318 312 306 291 289 293 262 286 252 272 274 251 281 280 257 294 284 263 294 317 146 152 84 69 62 49 19 160 140 90 132 179 216 67 187 309 223 234 216
323 321 320 322 321 321 319 318 315 311 302 294 288 284 262 267 266 279 269 270 276 275 264 274 271 258 305 223 237 214 11 262 34 23 20 19 135 119 184 212 298 149 153 170 182 269 249
325 319 322 322 321 318 315 315 311 304 296 291 284 288 284 280 240 267 295 304 303 305 294 253 292 301 230 285 277 159 239 17 159 64 26 59 61 70 161 190 219 29 25 105 19 295 351
323 323 323 322 321 319 317 311 306 302 290 283 278 285 278 272 272 256 263 310 297 262 276 305 323 310 211 224 136 190 160 310 224 166 162 63 36 104 134 325 288 330 101 129 122 9 342
324 325 322 321 321 321 317 308 297 288 284 276 280 288 293 255 280 256 269 293 331 316 308 330 285 222 305 242 180 143 176 177 221 358 325 116 126 131 108 149 274 140 121 229 22 285 280
325 325 324 323 322 323 325 325 272 264 270 273 276 292 292 235 267 245 261 281 295 298 310 298 305 301 355 66 140 146 131 175 106 174 174 166 326 307 231 33 24 194 302 224 133 341 293
Wind_Speed_850mb
45 43 41 44 44 47 46 45 47 52 52 54 51 52 52 48 47 48 51 50 47 49 45 36 35 38 32 21 38 42 33 36 19 29 41 43 33 24 23 19 22 24 18 20 24 15 20
38 42 43 43 43 43 47 52 54 49 55 53 54 54 53 50 51 50 48 46 38 44 41 37 39 41 36 30 39 39 38 33 29 34 43 48 25 30 17 15 30 19 26 19 18 26 21
43 43 44 45 47 49 48 48 49 51 50 48 49 49 55 51 54 59 51 47 40 35 41 42 44 47 51 55 33 30 27 28 29 33 41 47 45 28 15 8 15 8 11 14 29 25 15
42 44 46 47 49 50 51 51 54 54 54 52 47 48 51 57 60 65 59 45 42 42 42 45 46 46 43 43 40 63 43 33 30 33 37 33 39 22 10 10 6 10 6 17 5 26 15
43 44 45 48 47 46 50 55 55 56 57 58 54 51 52 56 58 62 65 55 46 47 49 45 49 48 36 27 52 55 55 58 37 36 32 26 30 19 13 16 12 13 23 27 12 28 14
46 47 48 47 49 52 53 55 60 63 61 60 63 57 57 57 61 62 65 70 52 48 40 39 45 26 33 25 33 44 53 47 34 37 22 19 18 19 22 26 31 28 21 19 26 17 22
47 49 45 48 49 49 55 57 59 62 61 62 63 62 60 61 67 66 62 66 20 14 23 30 12 44 38 25 29 35 40 44 30 26 26 23 19 41 49 45 35 23 32 34 19 13 17
49 51 47 48 51 53 55 61 61 61 63 66 66 64 60 61 59 54 57 30 28 26 32 50 59 66 58 26 21 33 46 37 28 36 30 14 45 45 26 37 42 29 28 29 8 11 14
49 53 52 53 56 56 56 59 62 68 71 67 63 65 65 60 61 57 50 40 38 42 15 50 56 52 56 63 38 41 63 38 26 32 40 41 41 37 33 30 33 43 46 36 28 7 8
49 53 56 60 55 56 59 63 70 73 71 73 67 65 61 64 48 35 48 25 26 30 10 21 21 34 39 38 24 56 66 35 14 39 38 30 40 18 39 44 37 38 31 30 23 8 22
53 52 59 60 62 59 64 61 68 73 76 75 70 65 61 49 56 52 42 44 39 14 11 10 14 10 17 39 23 35 75 36 18 25 19 27 26 44 21 40 36 21 6 16 22 28 18
52 54 59 63 65 64 64 67 72 73 73 74 72 67 60 58 50 50 43 44 18 12 19 11 1 2 11 29 14 24 42 28 13 15 6 14 3 28 32 27 26 27 16 10 6 8 14
59 57 56 64 60 64 65 67 69 72 73 72 71 70 62 55 50 42 43 15 10 13 2 18 21 3 8 12 14 19 31 28 26 18 18 11 10 8 6 13 10 19 23 8 10 11 14
62 64 62 59 65 70 66 69 73 73 72 72 72 74 70 59 58 42 40 11 20 12 21 2 5 10 12 6 9 11 22 23 35 25 16 27 15 26 19 18 21 42 26 12 17 15 9
58 62 60 66 69 67 70 72 79 77 74 72 74 80 66 62 56 32 28 13 13 15 14 19 9 11 13 6 10 9 11 23 29 26 28 21 19 21 39 12 25 13 18 3 11 4 4
59 64 65 67 66 68 74 77 80 81 79 72 73 76 68 24 30 35 14 20 17 20 8 6 11 6 7 3 2 5 10 7 9 42 38 11 13 22 12 11 1 12 25 7 7 15 12
58 64 68 68 66 69 74 78 82 87 87 72 65 23 37 29 17 24 7 12 13 23 23 15 22 21 13 6 9 8 10 10 13 13 38 8 7 13 21 20 29 13 12 10 7 6 12
63 64 67 66 70 71 74 76 81 81 82 48 18 10 20 24 8 5 7 8 8 15 17 26 18 22 26 25 24 17 19 18 25 13 10 14 5 9 14 4 5 11 10 16 12 12 5
64 64 63 66 73 72 75 71 75 70 57 43 16 15 29 29 9 8 7 10 16 12 17 7 10 14 2 7 13 26 23 10 26 21 12 13 9 10 8 3 5 14 11 13 10 3 17
63 65 67 67 71 68 72 70 68 66 47 44 17 8 9 27 36 8 16 13 11 12 14 22 23 22 16 20 13 14 9 11 23 22 30 15 9 9 16 5 11 17 33 28 21 10 14
62 68 67 70 70 76 73 74 64 62 44 36 12 8 14 8 11 23 15 7 9 9 9 4 6 17 17 8 8 17 30 9 10 14 7 11 10 5 4 2 3 7 28 37 35 26 24
65 67 67 70 74 77 73 73 66 51 40 39 11 11 10 17 17 20 12 2 16 19 10 11 19 10 14 12 22 35 22 11 10 8 12 4 2 5 4 3 3 6 16 34 37 32 15
67 69 69 73 75 74 68 72 56 44 34 33 22 41 15 16 10 11 7 8 6 2 14 27 21 19 18 22 28 19 18 7 2 8 14 14 13 10 7 1 2 10 24 35 28 28 25
69 68 71 75 75 72 66 65 49 41 33 36 42 38 19 9 9 11 10 9 16 17 11 12 11 9 6 22 11 8 15 16 16 15 6 10 13 4 5 7 11 1 1 4 23 13 27
71 68 74 77 75 72 65 62 51 41 34 35 38 33 9 8 10 18 22 19 21 20 11 17 17 13 22 5 5 3 2 1 10 12 11 5 6 7 8 8 5 8 5 9 12 6 9
70 70 77 79 78 71 63 60 52 42 36 33 36 30 28 9 8 14 7 5 8 6 9 8 15 16 10 3 0 2 2 2 2 3 6 10 12 4 2 3 4 4 4 2 2 6 6
72 75 80 80 78 65 60 58 53 42 34 31 29 28 25 11 11 7 5 5 5 3 6 9 11 7 7 3 3 2 3 3 1 4 1 4 5 4 3 1 5 2 6 5 7 4 7
74 78 81 75 71 65 63 63 52 39 29 25 28 24 26 10 14 10 8 5 7 5 6 9 8 3 1 3 2 3 3 3 1 2 2 1 5 3 4 2 7 11 9 2 3 0 4
76 77 79 71 64 60 65 68 38 25 19 22 23 23 30 18 7 9 13 7 6 8 10 8 9 5 5 2 2 4 4 4 1 2 1 2 1 2 7 3 4 17 2 6 2 1 2
Wind_Direction_850mb
19 15 10 8 4 359 354 352 352 350 348 345 341 334 330 323 316 314 312 299 290 280 277 276 280 282 288 253 245 254 266 278 263 221 217 207 193 199 204 202 174 218 208 203 222 208 218
22 14 14 8 3 2 360 358 352 349 350 348 346 341 336 329 327 320 317 309 296 287 268 264 260 271 277 249 262 255 254 249 243 220 215 212 215 211 230 208 202 211 220 213 219 217 222
12 13 9 8 1 358 357 354 355 353 345 346 347 345 337 336 328 324 318 312 291 276 267 260 255 259 258 249 261 252 246 242 231 224 220 220 216 203 193 188 210 164 239 231 226 220 218
11 9 9 5 0 357 353 350 353 351 350 342 342 340 333 325 325 324 318 313 304 279 261 256 253 252 248 265 262 243 240 239 225 220 219 224 214 215 206 147 136 206 222 245 175 192 196
7 6 6 1 360 357 355 353 353 347 346 341 337 329 328 325 322 319 315 309 303 292 265 256 240 232 263 246 239 246 239 231 220 214 212 217 201 216 169 204 217 201 245 229 240 195 157
2 0 2 357 351 353 352 351 349 346 345 338 332 330 319 318 316 314 316 314 299 300 279 250 243 199 230 214 237 238 228 216 209 195 183 178 192 216 214 202 223 222 228 233 229 188 205
356 348 352 348 349 351 346 346 345 340 335 334 334 327 323 320 311 316 315 323 341 282 231 228 244 229 244 227 234 227 212 193 194 185 191 187 205 219 215 216 228 267 239 241 231 181 211
349 351 350 344 344 342 341 338 336 335 332 329 326 327 321 316 315 313 313 297 299 299 300 280 266 264 246 251 220 209 193 177 187 206 197 176 224 226 241 218 224 226 237 231 247 165 215
345 340 341 337 337 336 338 338 334 328 326 322 319 320 320 315 313 320 307 284 290 296 279 271 255 244 244 226 223 202 188 200 193 207 196 202 222 204 195 204 215 232 236 241 243 165 241
339 335 332 333 334 334 336 336 331 332 329 324 321 316 317 320 319 306 308 294 308 311 275 262 216 240 221 210 229 212 202 176 197 197 203 229 241 219 208 210 196 229 220 237 232 213 248
335 332 332 331 332 337 334 335 329 330 328 328 322 314 309 313 301 294 304 312 279 246 271 270 193 213 197 186 173 201 201 193 189 170 160 214 200 205 202 216 200 230 29 229 229 236 268
328 326 331 331 327 333 332 331 326 323 324 322 323 314 306 305 299 294 307 296 279 220 221 265 338 265 188 203 202 139 172 198 163 195 231 207 184 197 214 206 204 146 113 93 113 176 224
324 324 324 332 334 328 328 325 324 321 318 320 321 316 304 296 285 289 296 281 242 240 248 255 248 259 276 216 178 195 183 175 183 180 191 172 177 162 175 129 126 161 144 153 189 201 235
322 325 325 327 328 325 325 323 319 317 317 318 318 314 303 291 291 284 256 210 227 252 236 179 152 283 244 163 235 210 194 190 219 224 178 197 200 167 174 198 178 188 183 182 209 199 193
319 321 326 326 325 323 322 323 321 321 316 319 318 318 305 304 299 266 218 227 191 237 257 263 196 218 264 185 227 223 247 217 206 197 211 191 219 186 171 156 151 168 214 107 107 13 183
319 316 324 322 322 323 324 324 323 320 317 316 313 312 297 304 282 230 209 220 229 217 283 322 300 197 285 240 237 195 190 228 251 211 234 202 195 190 140 122 176 197 137 146 180 172 220
324 321 321 323 321 323 323 324 324 320 315 308 304 293 291 289 256 204 236 232 236 248 258 240 260 254 260 293 284 289 227 229 211 246 213 199 175 139 149 208 175 155 177 186 162 197 213
322 320 321 320 319 324 324 324 326 328 325 300 305 257 286 296 254 210 249 219 251 263 262 243 260 261 264 273 278 267 225 231 188 166 222 188 101 153 185 0 309 227 213 179 197 187 253
322 323 320 320 322 327 321 325 326 331 348 339 292 269 289 264 257 222 211 231 238 249 251 260 249 234 185 295 277 226 238 266 194 180 202 172 164 126 123 123 179 210 188 209 74 93 194
324 323 323 320 323 324 322 323 324 327 330 323 281 286 271 222 244 264 260 261 241 235 243 245 263 282 270 244 226 280 250 202 211 213 201 181 182 218 220 127 136 194 191 181 187 196 165
325 321 325 321 322 321 325 323 318 320 323 320 256 262 267 272 253 251 267 261 273 276 221 201 268 241 247 263 300 270 246 220 208 214 220 194 222 150 73 116 153 192 184 186 203 202 197
321 323 322 321 321 323 324 321 315 313 315 311 243 266 318 280 270 264 257 237 264 267 225 260 230 228 244 280 284 284 287 220 225 160 185 182 169 108 137 342 252 218 203 202 215 213 231
322 324 318 322 321 324 325 324 320 312 313 300 260 292 266 266 263 250 238 230 247 168 260 255 279 282 262 268 249 255 261 330 67 183 182 173 149 175 203 98 154 266 214 200 210 213 216
321 322 319 321 323 323 322 322 318 312 306 291 289 293 262 286 252 272 274 251 281 280 257 294 284 263 294 317 146 152 84 69 62 49 19 160 140 90 132 179 216 67 187 309 223 234 216
323 321 320 322 321 321 319 318 315 311 302 294 288 284 262 267 266 279 269 270 276 275 264 274 271 258 305 223 237 214 11 262 34 23 20 19 135 119 184 212 298 149 153 170 182 269 249
325 319 322 322 321 318 315 315 311 304 296 291 284 288 284 280 240 267 295 304 303 305 294 253 292 301 230 285 277 159 239 17 159 64 26 59 61 70 161 190 219 29 25 105 19 295 351
323 323 323 322 321 319 317 311 306 302 290 283 278 285 278 272 272 256 263 310 297 262 276 305 323 310 211 224 136 190 160 310 224 166 162 63 36 104 134 325 288 330 101 129 122 9 342
324 325 322 321 321 321 317 308 297 288 284 276 280 288 293 255 280 256 269 293 331 316 308 330 285 222 305 242 180 143 176 177 221 358 325 116 126 131 108 149 274 140 121 229 22 285 280
325 325 324 323 322 323 325 325 272 264 270 273 276 292 292 235 267 245 261 281 295 298 310 298 305 301 355 66 140 146 131 175 106 174 174 166 326 307 231 33 24 194 302 224 133 341 293